User: anonymous   Login
Location: Unspecified
(0.0000°N, 0.0000°E)
Time: 20:53:19
(UTC+00:00)
Language:

USA 189 - Orbit

View from above orbital plane
View from above orbital plane
View from above satellite
View from above satellite

Ground track
Ground track

The orbit data is extracted from the following two-line orbital elements,

1 29242U 06024C   18125.64361344 0.00000000  00000-0  00000-0 0    02
2 29242   8.3279  41.3530 0004424 173.2744 186.7436  1.04027713    08
Epoch (UTC): 05 May 2018 15:26:48
Eccentricity: 0.0004424
inclination: 8.3279°
perigee height: 34747 km
apogee height: 34783 km
right ascension of ascending node: 41.3530°
argument of perigee: 173.2744°
revolutions per day: 1.04027713
mean anomaly at epoch: 186.7436°
orbit number at epoch: 0

The dashed part of the orbit path shows where the satellite is in the earth's shadow,  

DLR